ESEO
1 43792U 18099AL  24312.13756891  .00006768  00000-0  53376-3 0  9998
2 43792  97.4900   1.7896 0008004 155.8261 204.3340 15.01031217323631
CSIM
1 43793U 18099AM  24312.14975148  .00079137  00000-0  28424-2 0  9993
2 43793  97.5141  16.5662 0009618 170.8757 189.2659 15.28305737324505
JO-97
1 43803U 18099AX  24312.60652964  .00027143  00000-0  15453-2 0  9992
2 43803  97.5006   8.4008 0009163 162.0146 198.1411 15.12764695324332
Suomi 100
1 43804U 18099AY  24312.61959262  .00024520  00000-0  14474-2 0  9993
2 43804  97.5077   8.1313 0014655 164.3842 195.7843 15.11426573324305
ISAT
1 43879U 18111D   24312.29533001  .00037062  00000-0  18384-2 0  9992
2 43879  97.6046 217.7933 0009337 217.1411 142.9177 15.17581523319042
UWE-4
1 43880U 18111E   24312.73287443  .00033169  00000-0  17307-2 0  9997
2 43880  97.5980 217.8281 0012447 229.7382 130.2762 15.15797608319129
Sparrow
1 43881U 18111F   24312.80515410  .00040209  00000-0  19531-2 0  9998
2 43881  97.6159 220.5153 0005984 266.2659  93.7890 15.18316239319214
Prox-1
1 44339U 19036A   24312.56277260  .00025447  00000-0  38970-2 0  9990
2 44339  23.9998  19.6664 0008701 158.0932 201.9936 14.72238270286441
SONATE
1 44400U 19038Q   24312.82670765  .00067455  00000-0  13583-2 0  9995
2 44400  97.7152 314.4670 0010429 323.4923  36.5613 15.46295170296171
Taurus 1
1 44530U 19059C   24312.81678845  .00024968  00000-0  51990-2 0  9994
2 44530  98.5881  77.3038 0010171 332.0024  28.0627 14.59934686272684
Duchifat 3
1 44854U 19089C   24312.90271424  .00053349  00000-0  20288-2 0  9999
2 44854  36.9530 251.3859 0012040 237.8370 122.1212 15.25720629270080
TO-108
1 44881U 19093C   24312.85059979  .00004165  00000-0  49831-3 0  9995
2 44881  97.8161  26.8418 0013403 207.8691 152.1807 14.84622813264355
FloripaSat 1
1 44885U 19093G   24312.76320776  .00018693  00000-0  17611-2 0  9996
2 44885  97.8315  34.4855 0011480 195.8615 164.2247 14.93817247264770
RS-44
1 44909U 19096E   24312.57443021  .00000025  00000-0  47353-4 0  9992
2 44909  82.5251   9.4938 0218489  76.0700 286.4595 12.79735790227310
UPMSat 2
1 46276U 20061E   24312.44034705  .00049927  00000-0  11045-2 0  9997
2 46276  97.2780  17.6866 0001136  37.6335 322.4992 15.43656475232196
AmicalSat
1 46287U 20061R   24312.78068241  .00198616  00000-0  21962-2 0  9997
2 46287  97.3256  21.8351 0000766   8.7014 351.4258 15.62372930231754
SALSAT
1 46495U 20068K   24312.35318502  .00017158  00000-0  86571-3 0  9995
2 46495  97.8359 275.7440 0012932 172.0783 188.0656 15.17125590225981
SOMP 2b
1 47445U 21006AJ  24312.75687513  .01068758  56851-3  22084-2 0  9998
2 47445  97.2815  15.6864 0002888 301.0995  59.0000 15.99335239211031
IDEASSat
1 47458U 21006AX  24312.15652779  .00357904  00000-0  22386-2 0  9992
2 47458  97.3023  14.4586 0001990  38.5372 321.6035 15.75828080210781
CubeSX-Sirius-HSE
1 47951U 21022V   24312.86869342  .00078763  00000-0  20581-2 0  9990
2 47951  97.4401 211.7613 0010998   7.7175 352.4238 15.38421775200550
CubeSX-HSE
1 47952U 21022W   24312.87092312  .00080440  00000-0  20844-2 0  9994
2 47952  97.4400 211.8943 0010930   6.0418 354.0957 15.38672918200569
KSU-Cubesat
1 47954U 21022Y   24312.78029020  .00111271  00000-0  22747-2 0  9993
2 47954  97.4400 214.0878 0008666   6.7613 353.3751 15.45693315200410
GRBAlpha
1 47959U 21022AD  24312.82886241  .00078495  00000-0  20340-2 0  9996
2 47959  97.4401 212.0193 0010898   6.0500 354.0874 15.38681976199381
Orbicraft-Zorkiy
1 47960U 21022AE  24312.81794201  .00101771  00000-0  22746-2 0  9997
2 47960  97.4442 213.9935 0009621   8.3657 351.7749 15.43081232200172
TUBIN
1 48900U 21059X   24312.76395431  .00052545  00000-0  13318-2 0  9997
2 48900  97.6619 102.5919 0005627 301.9210  58.1487 15.39523229186935
LEDSAT
1 49069U 21073D   24312.45875139  .00054130  00000-0  15845-2 0  9993
2 49069  97.4204  23.3507 0016185 133.6591 226.5997 15.34926261178347
CUTE
1 49263U 21088D   24312.45506314  .00059723  00000-0  19915-2 0  9996
2 49263  97.4790  18.2925 0010358 299.3511  60.6695 15.30815874171469
TeikyoSat 4
1 49396U 21102B   24312.59074690  .00007616  00000-0  52728-3 0  9996
2 49396  97.4424 352.6003 0013887 141.2943 218.9282 15.05861936164325
Z-Sat
1 49399U 21102E   24312.85020415  .00012706  00000-0  75857-3 0  9998
2 49399  97.4132 354.8417 0020815 121.0214 239.3064 15.11064643164662
KOSEN 1
1 49402U 21102H   24312.88873754  .00018999  00000-0  10084-2 0  9998
2 49402  97.4045 356.9262 0018981 103.2224 257.1128 15.15220531164871
HO-113
1 50466U 21131B   24312.83081815  .00002944  00000-0  94425-3 0  9991
2 50466  98.5221  37.2303 0005045  65.3457 294.8256 14.40219748150677
IRIS-A
1 51044U 22002BN  24312.46481809  .00069734  00000-0  15216-2 0  9998
2 51044  97.3648  19.3526 0004040 235.3476 124.7391 15.43968789156422
Planetum 1
1 52738U 22057G   24312.78513712  .00522651  00000-0  24140-2 0  9991
2 52738  97.5678  87.0417 0007112 305.9346  54.1261 15.82160147136876
Foresail-1
1 52766U 22057AL  24312.82188781  .00070775  00000-0  15238-2 0  9994
2 52766  97.5966  82.9230 0007936 337.6666  22.4235 15.44336910136516
SNUGLITE 2
1 52899U 22065F   24312.84842433  .00005770  00000-0  11596-2 0  9999
2 52899  98.1402  91.4878 0008530  67.2427 292.9675 14.61969918125248
IO-117
1 53106U 22080B   24311.84817994 -.00000003  00000-0  00000+0 0  9991
2 53106  70.1285 142.9654 0008356  75.5452 284.6135  6.42557804 54437
FO-118
1 54684U 22167C   24312.85729697  .00129836  00000-0  23555-2 0  9991
2 54684  97.6161 102.8115 0008175 344.0147  16.0844 15.49087308106376
SSS-2B
1 56184U 23054G   24312.70473393  .00275124  00000-0  22029-2 0  9994
2 56184  97.3417 213.8695 0006739  65.6806 294.5159 15.70206266 88384
SO-120
1 56992U 23084BU  24312.57849710  .00155712  00000-0  27819-2 0  9991
2 56992  97.5386  75.2840 0009302 244.0340 115.9952 15.49420206 78198
MRC-100
1 56993U 23084BV  24312.31302080  .00212274  00000-0  27676-2 0  9996
2 56993  97.5366  76.2768 0008845 248.9907 111.0403 15.57948358 78246
UmKA 1 (RS40S)
1 57172U 23091G   24312.89848657  .00017788  00000-0  10670-2 0  9991
2 57172  97.5925   3.6329 0015691 355.5627   4.5461 15.10902346 75169
CubeBel-2 (EU11S)
1 57175U 23091K   24312.87222272  .00022950  00000-0  13069-2 0  9993
2 57175  97.5926   3.8094 0014124   8.1657 351.9800 15.12743609 75172
VERONIKA
1 58261U 23174F   24312.82610400  .00069001  00000-0  21590-2 0  9997
2 58261  97.4443  27.1342 0010037  95.2887 264.9500 15.32820687 55619
KAFASAT
1 58317U 23174BP  24312.84735732  .00106431  00000-0  25801-2 0  9995
2 58317  97.4374  28.6678 0007806  66.5697 293.6369 15.40629574 55738
ENSO
1 58470U 23185J   24312.83037955  .00055501  00000-0  17319-2 0  9994
2 58470  97.4072  18.7123 0010845 127.7024 232.5203 15.32963758 52067
EIRSAT-1
1 58472U 23185L   24312.83446758  .00061093  00000-0  17959-2 0  9994
2 58472  97.4064  18.9784 0010308 128.0167 232.2008 15.34837076 52088
SONATE-2
1 59112U 24043Q   24312.30652742  .00032339  00000-0  12923-2 0  9991
2 59112  97.4936  75.2817 0013449 151.5049 208.6927 15.24973368 37567
MO-122
1 60209U 24125G   24312.81038528  .00034993  00000-0  13892-2 0  9991
2 60209  97.3024 162.1455 0023361 175.4791 184.6663 15.25002893 19253
GRBBeta
1 60237U 24128C   24312.69691105  .00013015  00000-0  10720-2 0  9996
2 60237  61.9934 103.4022 0024964   0.4826 359.6283 14.99147968 18091
Curium One
1 60242U 24128H   24312.13511155  .00019601  00000-0  15947-2 0  9990
2 60242  61.9838 105.5241 0025031 349.8799  10.1783 14.99383073 18016
ROBUSTA-3A
1 60243U 24128J   24312.41968838  .00018053  00000-0  14822-2 0  9997
2 60243  61.9907 104.7778 0023209 346.8644  13.1838 14.99108060 18050
CatSat
1 60246U 24125J   24312.56094439  .00024751  00000-0  10095-2 0  9990
2 60246  97.2840 162.8457 0050428 131.5505 229.0074 15.23230760 17328
CosmoGirlSat
1 60953U 98067WT  24312.72249888  .00359531  00000-0  22332-2 0  9993
2 60953  51.6280 318.9494 0006735 101.3302 258.8455 15.75368117 10985
Sakura
1 60954U 98067WU  24312.72093513  .00510775  00000-0  25187-2 0  9996
2 60954  51.6268 318.1811 0007540  93.6555 266.5309 15.80133136 10997
Binar 2
1 60956U 98067WW  24312.26342692  .02446048  64945-2  29260-2 0  9991
2 60956  51.6047 318.0316 0007485  89.5769 270.6102 16.09230855 10942
CySat-1
1 61501U 98067WZ  24312.45202613  .00186798  00000-0  22043-2 0  9990
2 61501  51.6355 324.6590 0008532 129.7207 230.4540 15.60154574  4713
DORA
1 61502U 98067XA  24312.33619746  .00569111  00000-0  46445-2 0  9993
2 61502  51.6309 324.6340 0011099 100.6850 259.5397 15.68244291  4693
